This is the latest recevied weather packets stored in our database for station/object KG4ZVW. If no packets are shown the sender has not sent any weather packets the latest 10 day(s).
| Time | Temp. | Humidity | Pressure | Rain* | Wind** | Luminosity | Snow |
|---|---|---|---|---|---|---|---|
| 1777908803 | 26.11° C | 58% | 1017.1 hPa | 0 mm | - | 455 W/m² | - |
| 1777908519 | 26.67° C | 58% | 1017.1 hPa | 0 mm | - | 800 W/m² | - |
| 1777908214 | 26.67° C | 59% | 1017.1 hPa | 0 mm | - | 499 W/m² | - |
| 1777907913 | 26.11° C | 61% | 1017.1 hPa | 0 mm | - | 708 W/m² | - |
| 1777907609 | 26.11° C | 59% | 1017.1 hPa | 0 mm | - | 432 W/m² | - |
| 1777907305 | 26.11° C | 61% | 1017.1 hPa | 0 mm | - | 1000 W/m² | - |
| 1777907018 | 26.11° C | 59% | 1017.1 hPa | 0 mm | - | 401 W/m² | - |
| 1777906714 | 25.56° C | 62% | 1017.1 hPa | 0 mm | - | 1086 W/m² | - |
| 1777906410 | 25.56° C | 63% | 1017 hPa | 0 mm | - | 515 W/m² | - |
| 1777906104 | 25° C | 63% | 1017 hPa | 0 mm | - | 388 W/m² | - |
| 1777905819 | 25° C | 63% | 1017 hPa | 0 mm | - | 424 W/m² | - |
| 1777905512 | 25.56° C | 63% | 1016.7 hPa | 0 mm | - | 504 W/m² | - |
| 1777905206 | 25° C | 64% | 1016.7 hPa | 0 mm | - | 621 W/m² | - |
| 1777904919 | 25° C | 64% | 1016.7 hPa | 0 mm | - | 443 W/m² | - |
| 1777904613 | 25° C | 64% | 1016.6 hPa | 0 mm | - | 413 W/m² | - |
| 1777904312 | 24.44° C | 66% | 1016.6 hPa | 0 mm | - | 566 W/m² | - |
| 1777904012 | 24.44° C | 64% | 1016.6 hPa | 0 mm | - | 396 W/m² | - |
| 1777903709 | 24.44° C | 65% | 1016.6 hPa | 0 mm | - | 339 W/m² | - |
| 1777903403 | 24.44° C | 63% | 1016.6 hPa | 0 mm | - | 362 W/m² | - |
| 1777903119 | 24.44° C | 66% | 1016.6 hPa | 0 mm | - | 332 W/m² | - |
| 1777902815 | 24.44° C | 66% | 1016.4 hPa | 0 mm | - | 345 W/m² | - |
| 1777902510 | 25° C | 66% | 1016.4 hPa | 0 mm | - | 315 W/m² | - |
| 1777902206 | 24.44° C | 67% | 1016.4 hPa | 0 mm | - | 374 W/m² | - |
| 1777901899 | 24.44° C | 67% | 1016.3 hPa | 0 mm | - | 394 W/m² | - |
| 1777901618 | 24.44° C | 68% | 1016.3 hPa | 0 mm | - | 617 W/m² | - |
* Rain latest hour (hover to see other rain measurements)
** Current wind speed in m/s (hover to see current wind gust speed)